CAPE
0 0 0 0 14 51 30 7 0 1 1 1 0 3 3 0 4 0 0 0 0 1 1 3 3 16 31 0 0 0 0 2 5 26 2 3 0 0 4 9 12 14 15 2
0 0 0 0 1 20 19 1 1 0 1 0 0 1 0 2 2 9 4 4 9 7 8 3 4 1 13 0 0 1 6 0 0 0 0 1 0 2 1 15 16 0 11 0
0 0 0 0 0 0 9 5 0 0 0 2 2 0 0 0 18 16 19 17 19 25 20 19 35 21 25 0 2 0 0 0 0 0 0 0 0 0 2 7 12 5 18 10
3 1 0 0 0 0 15 9 7 0 0 0 9 20 3 9 0 7 6 3 5 17 23 14 11 16 21 3 1 0 0 0 0 0 0 0 0 0 0 1 9 16 3 4
10 22 0 0 0 0 0 0 0 0 0 3 0 0 1 3 1 0 4 0 0 1 1 0 0 0 0 7 4 14 14 2 0 0 0 4 3 0 0 0 0 3 9 1
7 21 2 0 0 0 0 0 0 16 0 4 5 1 0 1 0 0 0 0 0 0 0 0 0 0 0 0 0 11 22 9 5 0 0 20 12 0 0 0 3 7 8 1
2 4 0 0 0 0 0 0 0 0 0 5 4 0 0 0 0 0 0 0 0 0 0 0 0 0 0 0 0 0 0 0 0 0 0 0 0 0 0 1 1 0 11 26
8 0 0 0 0 0 0 0 0 1 0 4 0 0 0 0 0 0 0 0 0 0 0 0 0 0 0 0 0 0 0 0 0 0 0 0 0 0 0 0 0 0 7 15
0 5 1 0 0 0 0 0 0 0 0 0 0 0 0 0 0 0 0 0 0 0 0 0 0 0 0 0 0 0 0 0 0 0 0 0 0 0 0 16 9 0 8 38
0 1 1 0 0 0 0 0 0 0 0 0 0 0 0 0 0 0 0 0 0 0 0 0 0 0 0 0 0 0 1 5 0 0 2 0 0 0 8 14 0 75 24 98
0 12 10 9 0 0 5 1 0 0 0 0 0 0 0 0 0 0 0 1 0 2 1 0 0 0 0 0 0 0 0 1 20 13 13 8 0 9 30 66 23 66 41 98
0 7 1 1 0 0 0 0 0 0 0 0 0 0 0 0 0 0 0 0 0 2 0 0 0 0 0 3 2 0 0 0 0 4 5 13 55 47 38 9 5 2 0 6
0 0 0 0 0 0 0 5 1 0 0 0 0 0 0 0 0 0 0 0 0 0 2 5 4 2 6 4 8 8 5 11 9 9 2 19 11 34 1 5 10 36 31 121
0 0 0 0 0 0 0 10 4 3 3 2 1 0 0 0 0 0 0 0 4 4 9 6 10 2 9 8 2 1 0 0 0 2 4 2 0 1 9 0 50 62 42 76
3 0 3 6 6 0 8 13 3 11 8 8 4 1 0 0 0 0 0 0 0 2 12 5 8 7 6 3 4 0 0 0 0 0 0 0 0 0 0 0 34 110 65 98
1 1 6 4 5 0 13 0 4 8 23 5 2 0 0 0 0 0 6 13 12 9 11 13 10 7 4 7 6 0 0 0 0 0 0 0 0 0 0 1 0 62 43 59
9 9 8 13 1 6 4 7 7 1 10 0 5 2 1 0 0 0 1 1 2 10 13 7 8 9 13 2 0 0 0 0 0 0 0 0 1 0 9 4 1 10 22 0
12 6 2 0 0 0 2 9 5 2 0 0 5 1 10 9 8 6 4 2 0 0 11 11 12 9 4 8 0 0 0 0 0 0 0 0 0 0 3 1 11 3 8 3
0 0 0 5 6 10 2 0 2 0 1 9 5 3 13 4 18 4 0 6 6 8 5 6 2 1 2 0 0 0 0 0 0 0 0 0 0 4 7 4 2 1 6 0
0 3 6 0 0 0 2 1 0 0 0 0 1 10 2 25 23 14 2 8 7 8 1 10 1 0 0 0 0 0 0 0 0 2 7 14 7 5 0 0 0 0 3 3
6 3 0 4 7 1 12 3 0 3 1 7 3 1 7 5 3 6 10 2 0 3 0 1 8 0 0 0 0 0 0 0 3 2 14 6 0 0 1 4 33 12 6 2
9 13 17 0 9 10 2 2 3 5 1 1 2 5 0 16 7 4 10 5 3 2 2 7 5 1 0 0 0 0 0 0 0 0 1 13 9 9 24 80 54 2 0 0
3 4 6 9 5 4 0 0 0 1 2 1 4 7 5 6 7 2 1 4 8 5 4 4 6 1 0 0 2 1 1 0 0 0 0 2 13 15 29 4 0 0 1 0
10 5 0 1 2 0 0 0 1 8 3 13 9 14 17 3 1 1 1 2 2 3 7 3 16 8 3 0 1 1 0 0 0 0 0 0 0 0 0 0 0 0 0 0
9 4 2 0 0 5 5 3 3 7 9 3 3 3 12 2 0 0 1 0 1 3 1 24 50 4 0 1 1 0 0 0 0 0 0 0 0 0 0 0 0 0 0 0
3 3 1 2 3 3 0 0 0 5 2 1 3 4 3 3 5 3 1 1 0 19 69 56 1 0 0 0 0 0 0 0 0 0 0 0 0 0 0 1 0 1 0 0
4 2 0 1 2 1 12 18 14 13 3 1 12 2 3 2 6 7 7 2 44 18 11 1 0 0 0 0 0 0 0 0 0 1 2 1 1 1 1 0 1 1 1 1
CIN
0 0 0 0 -41 -19 -23 -0 0 0 0 0 0 -1 -2 0 -6 0 0 0 0 -2 -3 -2 -3 -3 -2 0 0 0 0 -1 -2 -5 -10 -23 -1 -5 -14 -5 -2 -3 -1 -1
0 0 0 0 -49 -29 -1 0 0 0 0 0 0 -0 0 -1 -3 -5 -3 -3 -3 -4 -3 -2 -3 -1 -13 0 0 -3 -5 0 0 0 0 -1 0 -1 -5 -4 -4 0 -2 -1
0 0 0 0 0 0 -4 -3 0 0 0 0 -0 -0 -0 -1 -1 -3 -2 -4 -3 -2 -2 -4 -3 -3 -5 0 -1 0 0 0 0 0 0 0 0 -21 -5 -6 -4 -3 -5 -6
0 0 0 0 0 0 -3 -9 -2 0 0 0 -1 -0 -0 -0 -1 -1 -1 -6 -2 -3 -2 -4 -3 -3 -4 -1 -5 0 0 0 0 0 0 0 0 0 0 -2 -6 -5 -5 -8
0 -0 0 0 0 0 0 0 0 0 -0 -1 0 0 0 0 0 -0 -0 -1 -2 -5 -3 0 -3 0 0 -2 -3 -2 -1 -0 0 0 -0 -2 -3 0 0 0 0 -3 -3 -3
0 0 0 0 0 0 0 0 0 -2 -0 -0 -4 -0 -0 0 -0 0 0 0 0 0 -1 0 0 0 0 -1 0 -3 -2 -1 -1 0 -1 -3 -3 0 0 0 -5 -5 -5 -2
-0 -0 0 0 0 0 0 0 0 0 0 -3 -3 0 0 0 0 0 0 0 0 0 0 0 0 0 0 0 0 0 0 0 -0 0 0 -1 0 0 0 -2 -4 -6 -8 -11
0 0 0 0 0 0 0 0 0 -0 0 -2 0 0 0 0 0 0 0 0 0 0 0 0 0 0 0 0 0 0 0 0 0 0 0 0 0 0 0 0 0 0 -8 -10
0 -0 0 0 0 0 0 0 0 0 0 0 0 0 0 0 0 0 0 0 0 0 0 0 0 0 0 0 0 0 0 0 0 -0 -0 0 0 0 -0 -6 -4 -0 -16 -12
0 -0 -0 0 0 0 0 0 0 0 0 0 0 0 0 0 0 -1 0 -0 0 0 0 0 0 0 0 0 0 0 -1 -7 0 -2 -2 0 0 0 -4 -2 0 -42 -77 -6
0 -1 -0 -1 0 0 -1 -1 0 0 -0 0 0 0 0 0 0 0 0 -0 -0 -2 -0 0 0 0 0 0 0 0 0 -2 -6 -4 -2 -0 0 -5 -5 -7 -12 -5 -25 -23
0 -1 -0 -0 0 0 0 0 0 0 0 -0 0 0 0 0 0 0 -0 0 0 -1 0 0 0 0 -1 -5 -5 0 -0 -2 -9 -8 -6 -4 -4 -8 -13 -4 -8 -30 -3 -89
0 0 0 0 0 0 0 -1 -1 -0 -0 0 0 0 0 0 0 0 0 -4 -1 0 -3 -1 -3 -2 -7 -9 -8 -8 -13 -9 -15 -5 -2 -6 -10 -14 -3 -1 -9 -10 -9 -4
0 0 0 0 0 0 0 -1 -0 -1 -0 -0 -0 0 0 0 0 0 0 0 -1 -2 -4 -2 -2 -2 -4 -5 -8 -7 -1 0 0 -10 -3 -7 -1 -5 -4 0 -34 -5 -12 -3
-3 0 -1 -1 0 0 -1 -0 -4 -1 -0 -0 -0 -0 0 0 0 0 0 0 -1 -2 -1 -2 -2 -3 -5 -6 -5 0 0 0 0 0 0 0 0 0 0 0 -7 -3 -5 -5
-1 -2 -1 -1 -1 0 -2 0 -2 -2 -1 -3 -1 -0 0 0 0 0 -1 -2 -2 -2 -0 -1 -2 -4 -5 -1 -1 0 -4 0 0 0 0 0 0 0 0 -2 0 -2 -2 -1
0 -0 -2 -1 -2 -1 -0 -1 -0 -5 -3 0 -0 -1 -1 0 0 0 -0 -1 -3 -1 -0 -0 -2 -4 -2 -2 0 0 0 0 -5 0 0 0 -1 0 -1 -0 -22 -17 -2 -3
0 0 0 0 0 0 -2 -2 -2 -3 -11 0 -1 -1 -1 -10 -1 0 -0 0 0 0 -0 -1 -1 -2 -3 -0 0 0 0 0 0 0 0 0 0 0 -0 -2 -9 -4 -1 -1
0 0 0 -0 -0 -0 -1 0 -3 0 0 0 -1 -1 -0 -10 -1 0 0 -0 -0 -0 -0 -1 -2 -1 -1 0 0 0 0 0 0 0 0 -1 0 0 -2 -2 -10 -0 -1 0
0 -1 -0 -0 0 0 -0 0 0 0 0 0 -1 -2 -1 -2 -0 -1 -1 -0 -1 -0 -3 -3 -0 0 0 0 0 0 0 0 0 -2 -2 -1 -1 -5 0 0 0 0 -1 -0
-1 -0 0 0 -0 0 0 0 0 -0 0 -0 -1 -1 -2 -3 -1 -1 -0 -0 -1 0 -1 -1 -1 -1 -1 -1 0 0 0 0 -2 -1 -2 -2 0 0 -0 -1 -1 -11 -13 0
-0 0 -0 -0 0 0 -0 -1 -1 -1 -1 -1 -1 -15 -0 -0 -0 -0 -2 -1 -1 -1 -1 -0 -1 -2 0 0 0 0 0 0 0 0 -1 -1 -3 -1 -1 -2 -13 -0 0 0
0 0 -0 -0 -1 -0 -0 0 -0 -1 -1 -0 -0 -1 0 -0 0 -1 -0 -3 -1 -2 -0 -1 -2 -0 0 -0 -0 -0 -0 -0 -0 -1 0 -0 -2 -8 -24 -5 0 0 0 0
0 0 -0 -0 -0 0 0 0 -0 -3 -1 -1 -8 -1 -0 0 0 -0 -2 -1 -0 -1 -1 -2 -2 -3 0 -0 -0 -0 0 0 -0 -2 0 0 0 0 0 0 0 0 0 0
0 -0 -0 -0 -0 -0 -0 -0 -0 -0 -1 -0 0 -0 -0 0 -1 -1 -0 0 -1 -1 -1 -3 -3 -0 -0 0 0 0 0 0 0 0 0 0 0 0 0 0 0 0 0 0
-0 -0 -0 -0 -1 -0 -0 0 0 -2 -0 0 0 -0 -0 -0 -1 -0 -0 -1 -0 -6 -7 -9 -16 0 0 0 0 0 0 0 0 0 0 0 0 0 0 0 0 0 0 0
0 0 -3 -1 -1 -1 0 0 -0 -0 0 -0 -0 -0 -0 -4 -0 -0 -2 -1 -8 -32 -22 0 0 0 0 0 0 0 0 0 0 0 0 0 0 0 0 0 0 0 0 0
Wind_Speed
14 16 17 18 18 19 20 23 27 19 17 28 28 35 31 28 28 24 25 26 27 26 22 24 23 24 24 17 18 22 19 25 29 27 21 18 21 23 21 32 34 31 38 43
9 14 16 17 18 19 20 26 26 19 21 30 29 26 29 29 29 25 24 24 22 21 22 27 24 21 16 17 18 22 20 26 35 35 28 23 28 29 27 28 31 39 43 45
7 10 12 15 18 20 20 25 31 26 27 27 28 30 29 29 25 27 24 23 21 22 25 24 23 22 19 18 19 20 21 29 34 40 33 23 28 25 25 28 36 39 41 43
5 7 10 13 16 19 20 24 30 29 35 30 29 25 29 30 27 24 21 25 25 25 28 25 26 22 20 19 20 23 25 36 34 35 34 36 38 36 35 38 39 43 44 45
3 5 8 11 15 17 19 24 25 25 28 28 28 27 27 23 23 23 26 25 23 24 26 25 26 24 23 26 22 24 23 33 31 40 34 33 36 36 36 38 40 44 44 47
2 5 8 10 16 19 19 20 19 21 22 21 26 26 22 22 18 20 20 21 20 22 21 19 20 20 21 22 25 25 25 28 32 45 35 35 40 37 38 39 38 37 40 37
2 2 5 8 14 18 16 15 15 18 25 25 25 24 23 21 21 22 19 18 19 18 16 19 22 24 25 27 27 26 30 32 33 41 40 47 40 37 38 41 40 38 36 34
6 6 7 9 11 15 13 13 15 14 16 17 18 16 16 15 17 17 17 16 17 15 19 23 26 27 30 32 32 29 26 29 33 36 40 39 42 35 37 38 41 36 35 33
4 5 8 10 9 11 10 13 15 15 13 17 14 13 13 14 16 17 18 17 18 18 21 24 31 33 33 32 27 20 23 26 30 33 40 44 40 38 33 31 42 29 28 26
4 6 6 7 8 11 12 13 14 14 16 15 14 17 18 17 17 20 19 19 23 22 24 29 34 36 31 36 33 31 30 24 29 32 37 39 37 36 33 36 34 27 31 20
5 4 4 4 6 9 13 10 13 16 16 14 17 16 16 16 18 21 18 19 23 22 28 31 32 34 32 36 34 33 33 32 30 30 34 40 27 32 28 29 30 30 32 31
5 4 3 4 6 9 13 11 12 14 16 16 16 18 19 19 20 22 18 23 22 22 26 28 30 36 34 33 38 27 36 33 37 34 35 28 25 25 25 32 34 35 34 33
1 1 1 4 6 9 15 12 13 16 19 21 20 24 22 22 22 22 26 23 23 23 21 27 30 35 31 37 36 36 32 28 29 31 29 31 38 37 39 41 42 41 35 27
2 3 4 6 7 10 14 14 15 18 19 23 21 17 19 18 16 18 20 23 23 22 24 26 29 33 27 34 36 39 32 33 31 33 33 38 44 41 37 41 40 41 32 28
2 2 3 4 6 10 15 17 16 18 19 21 22 25 22 19 17 17 17 18 19 23 25 27 32 31 33 36 37 37 30 34 35 38 41 42 43 44 41 43 40 37 27 24
3 8 6 7 8 13 16 19 17 13 15 20 21 19 22 15 11 14 17 17 19 21 24 27 29 28 29 32 33 48 39 43 49 52 46 48 45 44 44 40 39 35 27 25
2 2 3 6 8 11 17 18 15 14 12 17 20 20 14 11 7 7 6 5 9 11 13 16 23 31 25 21 42 44 44 41 38 40 39 42 40 38 37 38 37 25 15 16
1 3 5 8 12 22 22 17 14 12 15 16 17 17 13 12 8 5 8 4 7 6 14 17 25 30 29 38 41 40 39 38 37 38 39 40 40 37 33 27 15 15 14 16
4 5 7 12 19 20 21 18 15 13 21 18 21 20 21 15 10 9 12 7 6 6 19 25 22 24 32 30 28 31 32 31 31 31 33 35 34 32 30 24 16 21 22 17
4 8 16 20 22 20 8 16 18 17 22 24 25 23 23 3 20 8 9 11 19 18 21 22 32 34 34 34 31 30 30 29 24 22 25 26 25 24 22 26 20 20 18 14
16 18 19 16 12 16 18 20 21 21 21 22 23 25 23 21 20 20 19 18 19 18 19 22 20 21 23 23 28 33 31 28 26 24 24 23 2 11 11 12 13 14 13 12
19 18 16 17 19 19 20 21 20 22 21 16 19 19 18 19 20 20 18 18 19 19 17 20 19 17 16 16 16 21 27 29 28 26 21 3 4 8 10 11 11 12 12 11
20 20 19 19 19 23 22 23 21 19 18 18 18 17 17 16 16 19 19 18 19 17 18 18 19 15 16 17 18 19 21 21 15 8 4 2 9 11 9 9 10 10 11 10
20 18 21 22 21 21 21 23 17 18 18 17 18 19 16 17 17 18 18 18 18 18 20 20 17 16 16 17 17 16 16 16 14 12 10 8 8 9 10 9 9 9 9 10
19 18 21 24 23 20 19 20 20 21 19 19 20 21 21 14 16 14 19 18 21 21 20 18 17 16 14 14 15 15 15 15 14 13 11 9 9 9 9 10 10 10 10 9
20 21 20 22 21 23 21 21 24 21 18 19 20 18 16 17 16 16 18 20 21 18 15 15 16 15 14 13 14 15 16 16 15 14 11 10 11 9 9 10 10 10 9 8
21 22 25 26 23 22 20 20 21 14 15 20 18 18 17 13 13 11 11 14 19 17 18 19 19 16 15 14 15 16 16 16 16 14 12 11 10 8 8 9 9 9 9 8
Wind_Direction
239 237 234 231 229 224 231 244 246 255 245 235 247 244 253 265 268 272 275 277 268 266 269 271 273 278 287 297 302 293 303 296 286 286 309 303 295 292 289 286 288 289 288 283
235 240 238 237 231 224 237 241 250 257 241 239 242 255 261 264 262 262 266 267 271 275 266 272 274 277 294 296 298 298 302 292 287 288 288 286 292 288 284 290 292 285 287 287
242 246 241 236 232 236 242 242 241 248 247 255 248 254 258 263 262 263 264 269 266 267 268 273 277 275 287 292 296 301 302 289 285 282 287 309 296 293 291 292 288 290 287 294
251 249 245 236 231 236 242 242 245 246 244 246 252 253 261 253 256 259 258 266 265 266 270 270 271 275 282 286 290 293 293 285 287 287 289 288 286 287 287 287 289 287 292 293
246 237 238 236 231 235 245 242 248 250 259 240 250 253 254 249 258 256 257 262 263 267 271 273 278 277 280 283 292 291 291 288 291 286 290 288 285 284 285 288 289 290 292 293
217 235 234 238 237 239 244 252 258 250 247 240 237 248 246 253 257 266 269 261 266 266 275 282 289 289 293 291 286 287 287 290 290 285 292 290 285 285 288 288 289 289 288 294
108 205 230 241 237 243 248 254 252 253 245 243 249 252 251 251 254 261 268 271 268 280 291 291 289 288 288 286 285 285 285 287 288 286 290 282 288 290 291 291 292 293 293 298
229 230 235 239 244 245 248 251 259 261 247 246 253 249 255 250 262 261 264 274 285 285 286 283 284 287 288 287 282 279 277 281 285 284 285 290 290 293 296 294 291 295 299 301
242 241 239 242 249 249 253 261 265 266 258 258 250 250 251 253 259 267 268 275 275 280 280 281 281 283 289 289 293 290 280 273 277 282 284 285 291 295 301 304 294 302 297 295
262 255 258 262 268 265 269 273 277 275 268 271 262 258 257 267 265 269 266 268 271 272 276 280 283 282 288 283 284 286 286 279 273 278 282 286 292 297 302 292 300 318 310 313
266 267 274 284 285 277 281 291 291 279 276 274 271 274 270 269 268 270 275 275 278 275 277 281 282 284 285 284 284 283 282 281 278 281 282 286 302 302 298 305 303 305 295 301
258 260 289 297 295 294 291 295 304 303 285 286 287 282 282 280 283 279 276 282 283 281 282 283 288 282 284 285 283 283 278 279 282 281 284 294 306 305 304 297 293 289 282 287
256 268 323 309 305 300 289 303 304 301 291 287 284 280 280 281 278 281 278 279 285 285 289 290 290 283 288 283 282 284 284 287 282 286 290 288 284 291 289 282 277 278 284 296
241 267 283 290 296 298 290 299 302 297 295 286 292 301 291 290 283 281 281 283 293 289 289 286 284 284 288 284 287 285 286 289 289 286 285 283 275 280 287 285 281 280 284 290
157 268 306 319 318 310 299 296 303 300 299 296 299 298 294 294 290 285 282 280 279 281 282 281 281 283 284 284 285 280 281 278 277 278 275 276 272 275 280 282 278 282 281 282
218 270 282 296 300 300 300 301 306 312 309 307 307 315 303 300 286 288 287 279 277 275 277 283 282 282 285 286 280 268 278 274 265 254 264 264 266 268 265 255 252 266 277 285
148 215 300 307 307 299 298 300 316 313 322 313 307 312 325 330 324 318 306 262 260 262 267 258 282 278 278 258 237 255 261 259 264 260 268 258 245 257 264 257 239 270 295 303
289 326 325 313 304 275 280 287 307 333 323 310 308 310 321 301 350 95 351 320 296 264 199 199 207 222 220 235 242 244 238 232 233 235 234 237 243 256 248 250 283 295 302 305
297 312 314 307 278 276 272 277 255 155 233 283 238 221 221 290 0 5 358 34 151 326 193 203 202 200 224 224 220 220 227 229 232 237 233 236 240 222 248 274 293 284 291 311
299 299 278 263 243 242 298 253 254 265 248 238 222 233 208 144 217 97 82 121 186 183 195 193 205 217 225 227 223 225 222 228 228 238 218 222 244 259 274 272 295 301 308 320
255 246 246 241 239 243 247 244 237 234 232 229 228 209 208 213 204 210 207 205 178 205 192 199 217 225 217 217 212 212 214 217 222 230 216 226 80 326 326 322 320 319 324 331
238 237 235 237 242 247 242 240 237 228 231 274 244 232 245 245 228 224 205 212 208 228 187 231 241 253 251 243 260 228 220 229 226 217 204 137 9 350 339 329 321 324 329 339
221 224 233 239 243 229 237 224 228 237 249 246 251 259 244 275 267 225 249 254 229 254 242 260 266 305 280 266 268 258 240 212 187 161 135 74 351 349 14 11 333 326 333 335
224 234 229 230 236 236 235 234 257 254 242 248 245 260 273 227 262 246 260 271 280 290 271 275 306 311 315 316 324 333 333 334 344 351 3 340 346 343 12 29 29 13 357 349
238 246 238 235 239 248 255 258 257 252 257 254 254 239 253 314 309 328 295 301 280 284 288 303 318 328 344 350 347 348 349 351 352 348 345 335 326 340 354 4 18 13 17 11
239 241 252 250 257 255 272 271 264 278 281 272 265 289 313 310 320 315 304 300 291 313 331 345 348 350 345 349 354 346 332 327 333 331 337 332 314 332 351 1 7 18 27 22
241 250 243 246 265 273 281 284 287 306 297 275 285 293 305 347 341 349 344 324 307 318 315 310 311 326 326 329 330 330 332 327 324 321 319 322 329 350 358 358 6 11 1 8